Year,Month,Day,Hour,Minute,Value (Times are PST for temperature in C)
2019,10,28,00,00,2.20
2019,10,28,00,01,2.20
2019,10,28,00,02,2.20
2019,10,28,00,03,2.20
2019,10,28,00,04,2.10
2019,10,28,00,05,2.10
2019,10,28,00,06,2.10
2019,10,28,00,07,2.10
2019,10,28,00,08,2.10
2019,10,28,00,09,2.10
2019,10,28,00,10,2.10
2019,10,28,00,11,2.10
2019,10,28,00,12,2.10
2019,10,28,00,13,2.10
2019,10,28,00,14,2.10
2019,10,28,00,15,2.10
2019,10,28,00,16,2.00
2019,10,28,00,17,2.00
2019,10,28,00,18,1.90
2019,10,28,00,19,1.90
2019,10,28,00,20,1.90
2019,10,28,00,21,1.80
2019,10,28,00,22,1.80
2019,10,28,00,23,1.80
2019,10,28,00,24,1.80
2019,10,28,00,25,1.80
2019,10,28,00,26,1.80
2019,10,28,00,27,1.70
2019,10,28,00,28,1.70
2019,10,28,00,29,1.70
2019,10,28,00,30,1.70
2019,10,28,00,31,1.70
2019,10,28,00,32,1.70
2019,10,28,00,33,1.70
2019,10,28,00,34,1.70
2019,10,28,00,35,1.70
2019,10,28,00,36,1.70
2019,10,28,00,37,1.70
2019,10,28,00,38,1.70
2019,10,28,00,39,1.70
2019,10,28,00,40,1.70
2019,10,28,00,41,1.60
2019,10,28,00,42,1.60
2019,10,28,00,43,1.60
2019,10,28,00,44,1.60
2019,10,28,00,45,1.60
2019,10,28,00,46,1.60
2019,10,28,00,47,1.60
2019,10,28,00,48,1.60
2019,10,28,00,49,1.60
2019,10,28,00,50,1.60
2019,10,28,00,51,1.60
2019,10,28,00,52,1.60
2019,10,28,00,53,1.60
2019,10,28,00,54,1.60
2019,10,28,00,55,1.60
2019,10,28,00,56,1.60
2019,10,28,00,57,1.60
2019,10,28,00,58,1.60
2019,10,28,00,59,1.60
2019,10,28,01,00,1.60
2019,10,28,01,01,1.60
2019,10,28,01,02,1.60
2019,10,28,01,03,1.60
2019,10,28,01,04,1.60
2019,10,28,01,05,1.60
2019,10,28,01,06,1.60
2019,10,28,01,07,1.60
2019,10,28,01,08,1.60
2019,10,28,01,09,1.50
2019,10,28,01,10,1.50
2019,10,28,01,11,1.50
2019,10,28,01,12,1.50
2019,10,28,01,13,1.50
2019,10,28,01,14,1.60
2019,10,28,01,15,1.60
2019,10,28,01,16,1.60
2019,10,28,01,17,1.60
2019,10,28,01,18,1.60
2019,10,28,01,19,1.60
2019,10,28,01,20,1.60
2019,10,28,01,21,1.70
2019,10,28,01,22,1.70
2019,10,28,01,23,1.70
2019,10,28,01,24,1.60
2019,10,28,01,25,1.60
2019,10,28,01,26,1.60
2019,10,28,01,27,1.60
2019,10,28,01,28,1.60
2019,10,28,01,29,1.60
2019,10,28,01,30,1.60
2019,10,28,01,31,1.60
2019,10,28,01,32,1.60
2019,10,28,01,33,1.60
2019,10,28,01,34,1.60
2019,10,28,01,35,1.60
2019,10,28,01,36,1.60
2019,10,28,01,37,1.60
2019,10,28,01,38,1.60
2019,10,28,01,39,1.70
2019,10,28,01,40,1.70
2019,10,28,01,41,1.70
2019,10,28,01,42,1.70
2019,10,28,01,43,1.70
2019,10,28,01,44,1.70
2019,10,28,01,45,1.70
2019,10,28,01,46,1.70
2019,10,28,01,47,1.70
2019,10,28,01,48,1.70
2019,10,28,01,49,1.70
2019,10,28,01,50,1.70
2019,10,28,01,51,1.70
2019,10,28,01,52,1.70
2019,10,28,01,53,1.70
2019,10,28,01,54,1.70
2019,10,28,01,55,1.70
2019,10,28,01,56,1.70
2019,10,28,01,57,1.80
2019,10,28,01,58,1.80
2019,10,28,01,59,1.80
2019,10,28,02,00,1.80
2019,10,28,02,01,1.80
2019,10,28,02,02,1.80
2019,10,28,02,03,1.80
2019,10,28,02,04,1.80
2019,10,28,02,05,1.80
2019,10,28,02,06,1.80
2019,10,28,02,07,1.80
2019,10,28,02,08,1.80
2019,10,28,02,09,1.80
2019,10,28,02,10,1.80
2019,10,28,02,11,1.80
2019,10,28,02,12,1.80
2019,10,28,02,13,1.80
2019,10,28,02,14,1.80
2019,10,28,02,15,1.80
2019,10,28,02,16,1.80
2019,10,28,02,17,1.80
2019,10,28,02,18,1.80
2019,10,28,02,19,1.80
2019,10,28,02,20,1.80
2019,10,28,02,21,1.90
2019,10,28,02,22,1.90
2019,10,28,02,23,1.90
2019,10,28,02,24,2.00
2019,10,28,02,25,2.00
2019,10,28,02,26,2.10
2019,10,28,02,27,2.10
2019,10,28,02,28,2.10
2019,10,28,02,29,2.10
2019,10,28,02,30,2.10
2019,10,28,02,31,2.00
2019,10,28,02,32,2.00
2019,10,28,02,33,2.00
2019,10,28,02,34,2.00
2019,10,28,02,35,2.00
2019,10,28,02,36,2.00
2019,10,28,02,37,1.90
2019,10,28,02,38,1.90
2019,10,28,02,39,1.90
2019,10,28,02,40,1.90
2019,10,28,02,41,2.00
2019,10,28,02,42,2.00
2019,10,28,02,43,2.00
2019,10,28,02,44,2.00
2019,10,28,02,45,2.00
2019,10,28,02,46,2.00
2019,10,28,02,47,2.00
2019,10,28,02,48,1.90
2019,10,28,02,49,1.90
2019,10,28,02,50,1.90
2019,10,28,02,51,1.90
2019,10,28,02,52,2.00
2019,10,28,02,53,2.00
2019,10,28,02,54,2.00
2019,10,28,02,55,2.00
2019,10,28,02,56,2.00
2019,10,28,02,57,2.00
2019,10,28,02,58,2.10
2019,10,28,02,59,2.10
2019,10,28,03,00,2.20
2019,10,28,03,01,2.20
2019,10,28,03,02,2.20
2019,10,28,03,03,2.20
2019,10,28,03,04,2.20
2019,10,28,03,05,2.20
2019,10,28,03,06,2.20
2019,10,28,03,07,2.20
2019,10,28,03,08,2.20
2019,10,28,03,09,2.20
2019,10,28,03,10,2.20
2019,10,28,03,11,2.20
2019,10,28,03,12,2.20
2019,10,28,03,13,2.30
2019,10,28,03,14,2.30
2019,10,28,03,15,2.30
2019,10,28,03,16,2.40
2019,10,28,03,17,2.40
2019,10,28,03,18,2.50
2019,10,28,03,19,2.50
2019,10,28,03,20,2.50
2019,10,28,03,21,2.50
2019,10,28,03,22,2.50
2019,10,28,03,23,2.50
2019,10,28,03,24,2.50
2019,10,28,03,25,2.50
2019,10,28,03,26,2.50
2019,10,28,03,27,2.60
2019,10,28,03,28,2.60
2019,10,28,03,29,2.60
2019,10,28,03,30,2.60
2019,10,28,03,31,2.60
2019,10,28,03,32,2.50
2019,10,28,03,33,2.40
2019,10,28,03,34,2.30
2019,10,28,03,35,2.30
2019,10,28,03,36,2.20
2019,10,28,03,37,2.20
2019,10,28,03,38,2.20
2019,10,28,03,39,2.30
2019,10,28,03,40,2.40
2019,10,28,03,41,2.50
2019,10,28,03,42,2.60
2019,10,28,03,43,2.60
2019,10,28,03,44,2.60
2019,10,28,03,45,2.60
2019,10,28,03,46,2.60
2019,10,28,03,47,2.70
2019,10,28,03,48,2.70
2019,10,28,03,49,2.80
2019,10,28,03,50,2.70
2019,10,28,03,51,2.70
2019,10,28,03,52,2.70
2019,10,28,03,53,2.70
2019,10,28,03,54,2.70
2019,10,28,03,55,2.70
2019,10,28,03,56,2.80
2019,10,28,03,57,2.80
2019,10,28,03,58,2.80
2019,10,28,03,59,2.80
2019,10,28,04,00,2.80
2019,10,28,04,01,2.80
2019,10,28,04,02,2.80
2019,10,28,04,03,2.80
2019,10,28,04,04,2.80
2019,10,28,04,05,2.80
2019,10,28,04,06,2.70
2019,10,28,04,07,2.70
2019,10,28,04,08,2.70
2019,10,28,04,09,2.70
2019,10,28,04,10,2.70
2019,10,28,04,11,2.60
2019,10,28,04,12,2.60
2019,10,28,04,13,2.60
2019,10,28,04,14,2.60
2019,10,28,04,15,2.70
2019,10,28,04,16,2.70
2019,10,28,04,17,2.80
2019,10,28,04,18,2.80
2019,10,28,04,19,2.80
2019,10,28,04,20,2.80
2019,10,28,04,21,2.70
2019,10,28,04,22,2.70
2019,10,28,04,23,2.70
2019,10,28,04,24,2.60
2019,10,28,04,25,2.60
2019,10,28,04,26,2.60
2019,10,28,04,27,2.60
2019,10,28,04,28,2.50
2019,10,28,04,29,2.50
2019,10,28,04,30,2.40
2019,10,28,04,31,2.40
2019,10,28,04,32,2.40
2019,10,28,04,33,2.40
2019,10,28,04,34,2.40
2019,10,28,04,35,2.40
2019,10,28,04,36,2.40
2019,10,28,04,37,2.40
2019,10,28,04,38,2.40
2019,10,28,04,39,2.40
2019,10,28,04,40,2.40
2019,10,28,04,41,2.40
2019,10,28,04,42,2.30
2019,10,28,04,43,2.30
2019,10,28,04,44,2.30
2019,10,28,04,45,2.30
2019,10,28,04,46,2.40
2019,10,28,04,47,2.40
2019,10,28,04,48,2.50
2019,10,28,04,49,2.50
2019,10,28,04,50,2.50
2019,10,28,04,51,2.60
2019,10,28,04,52,2.60
2019,10,28,04,53,2.60
2019,10,28,04,54,2.60
2019,10,28,04,55,2.60
2019,10,28,04,56,2.70
2019,10,28,04,57,2.70
2019,10,28,04,58,2.70
2019,10,28,04,59,2.70
2019,10,28,05,00,2.70
2019,10,28,05,01,2.80
2019,10,28,05,02,2.80
2019,10,28,05,03,2.80
2019,10,28,05,04,2.90
2019,10,28,05,05,2.90
2019,10,28,05,06,2.90
2019,10,28,05,07,2.90
2019,10,28,05,08,2.90
2019,10,28,05,09,2.90
2019,10,28,05,10,2.90
2019,10,28,05,11,3.00
2019,10,28,05,12,3.00
2019,10,28,05,13,3.00
2019,10,28,05,14,3.00
2019,10,28,05,15,3.10
2019,10,28,05,16,3.10
2019,10,28,05,17,3.10
2019,10,28,05,18,3.10
2019,10,28,05,19,3.10
2019,10,28,05,20,3.10
2019,10,28,05,21,3.10
2019,10,28,05,22,3.10
2019,10,28,05,23,3.10
2019,10,28,05,24,3.10
2019,10,28,05,25,3.10
2019,10,28,05,26,3.10
2019,10,28,05,27,3.10
2019,10,28,05,28,3.10
2019,10,28,05,29,3.10
2019,10,28,05,30,3.10
2019,10,28,05,31,3.10
2019,10,28,05,32,3.10
2019,10,28,05,33,3.10
2019,10,28,05,34,3.10
2019,10,28,05,35,3.00
2019,10,28,05,36,3.00
2019,10,28,05,37,3.10
2019,10,28,05,38,3.10
2019,10,28,05,39,3.10
2019,10,28,05,40,3.10
2019,10,28,05,41,3.10
2019,10,28,05,42,3.10
2019,10,28,05,43,3.10
2019,10,28,05,44,3.00
2019,10,28,05,45,3.00
2019,10,28,05,46,3.00
2019,10,28,05,47,3.00
2019,10,28,05,48,3.00
2019,10,28,05,49,3.00
2019,10,28,05,50,3.00
2019,10,28,05,51,3.00
2019,10,28,05,52,2.90
2019,10,28,05,53,2.90
2019,10,28,05,54,3.00
2019,10,28,05,55,3.00
2019,10,28,05,56,3.00
2019,10,28,05,57,3.00
2019,10,28,05,58,3.00
2019,10,28,05,59,3.10
2019,10,28,06,00,3.10
2019,10,28,06,01,3.10
2019,10,28,06,02,3.10
2019,10,28,06,03,3.10
2019,10,28,06,04,3.20
2019,10,28,06,05,3.20
2019,10,28,06,06,3.20
2019,10,28,06,07,3.20
2019,10,28,06,08,3.20
2019,10,28,06,09,3.20
2019,10,28,06,10,3.30
2019,10,28,06,11,3.30
2019,10,28,06,12,3.30
2019,10,28,06,13,3.30
2019,10,28,06,14,3.30
2019,10,28,06,15,3.30
2019,10,28,06,16,3.30
2019,10,28,06,17,3.30
2019,10,28,06,18,3.30
2019,10,28,06,19,3.30
2019,10,28,06,20,3.30
2019,10,28,06,21,3.30
2019,10,28,06,22,3.30
2019,10,28,06,23,3.30
2019,10,28,06,24,3.30
2019,10,28,06,25,3.30
2019,10,28,06,26,3.30
2019,10,28,06,27,3.30
2019,10,28,06,28,3.30
2019,10,28,06,29,3.30
2019,10,28,06,30,3.40
2019,10,28,06,31,3.40
2019,10,28,06,32,3.40
2019,10,28,06,33,3.40
2019,10,28,06,34,3.40
2019,10,28,06,35,3.40
2019,10,28,06,36,3.40
2019,10,28,06,37,3.40
2019,10,28,06,38,3.40
2019,10,28,06,39,3.40
2019,10,28,06,40,3.40
2019,10,28,06,41,3.40
2019,10,28,06,42,3.40
2019,10,28,06,43,3.50
2019,10,28,06,44,3.50
2019,10,28,06,45,3.50
2019,10,28,06,46,3.50
2019,10,28,06,47,3.50
2019,10,28,06,48,3.50
2019,10,28,06,49,3.60
2019,10,28,06,50,3.60
2019,10,28,06,51,3.60
2019,10,28,06,52,3.60
2019,10,28,06,53,3.60
2019,10,28,06,54,3.60
2019,10,28,06,55,3.60
2019,10,28,06,56,3.70
2019,10,28,06,57,3.60
2019,10,28,06,58,3.60
2019,10,28,06,59,3.60
2019,10,28,07,00,3.60
2019,10,28,07,01,3.60
2019,10,28,07,02,3.60
2019,10,28,07,03,3.60
2019,10,28,07,04,3.60
2019,10,28,07,05,3.60
2019,10,28,07,06,3.60
2019,10,28,07,07,3.60
2019,10,28,07,08,3.60
2019,10,28,07,09,3.60
2019,10,28,07,10,3.60
2019,10,28,07,11,3.60
2019,10,28,07,12,3.60
2019,10,28,07,13,3.70
2019,10,28,07,14,3.70
2019,10,28,07,15,3.70
2019,10,28,07,16,3.70
2019,10,28,07,17,3.70
2019,10,28,07,18,3.70
2019,10,28,07,19,3.70
2019,10,28,07,20,3.70
2019,10,28,07,21,3.70
2019,10,28,07,22,3.70
2019,10,28,07,23,3.70
2019,10,28,07,24,3.70
2019,10,28,07,25,3.70
2019,10,28,07,26,3.70
2019,10,28,07,27,3.70
2019,10,28,07,28,3.70
2019,10,28,07,29,3.70
2019,10,28,07,30,3.70
2019,10,28,07,31,3.80
2019,10,28,07,32,3.80
2019,10,28,07,33,3.90
2019,10,28,07,34,3.90
2019,10,28,07,35,4.00
2019,10,28,07,36,4.00
2019,10,28,07,37,4.00
2019,10,28,07,38,4.10
2019,10,28,07,39,4.10
2019,10,28,07,40,4.10
2019,10,28,07,41,4.10
2019,10,28,07,42,4.10
2019,10,28,07,43,4.00
2019,10,28,07,44,4.00
2019,10,28,07,45,4.00
2019,10,28,07,46,4.00
2019,10,28,07,47,3.90
2019,10,28,07,48,3.90
2019,10,28,07,49,3.90
2019,10,28,07,50,3.90
2019,10,28,07,51,3.80
2019,10,28,07,52,3.80
2019,10,28,07,53,3.80
2019,10,28,07,54,3.80
2019,10,28,07,55,3.80
2019,10,28,07,56,3.80
2019,10,28,07,57,3.80
2019,10,28,07,58,3.80
2019,10,28,07,59,3.80
2019,10,28,08,00,3.80
2019,10,28,08,01,3.80
2019,10,28,08,02,3.80
2019,10,28,08,03,3.90
2019,10,28,08,04,3.90
2019,10,28,08,05,3.90
2019,10,28,08,06,3.90
2019,10,28,08,07,3.90
2019,10,28,08,08,3.90
2019,10,28,08,09,3.90
2019,10,28,08,10,3.90
2019,10,28,08,11,3.90
2019,10,28,08,12,3.90
2019,10,28,08,13,3.90
2019,10,28,08,14,4.00
2019,10,28,08,15,4.00
2019,10,28,08,16,4.10
2019,10,28,08,17,4.10
2019,10,28,08,18,4.10
2019,10,28,08,19,4.10
2019,10,28,08,20,4.10
2019,10,28,08,21,4.10
2019,10,28,08,22,4.10
2019,10,28,08,23,4.10
2019,10,28,08,24,4.20
2019,10,28,08,25,4.20
2019,10,28,08,26,4.20
2019,10,28,08,27,4.20
2019,10,28,08,28,4.20
2019,10,28,08,29,4.20
2019,10,28,08,30,4.10
2019,10,28,08,31,4.10
2019,10,28,08,32,4.10
2019,10,28,08,33,4.10
2019,10,28,08,34,4.10
2019,10,28,08,35,4.10
2019,10,28,08,36,4.10
2019,10,28,08,37,4.10
2019,10,28,08,38,4.10
2019,10,28,08,39,4.10
2019,10,28,08,40,4.10
2019,10,28,08,41,4.10
2019,10,28,08,42,4.10
2019,10,28,08,43,4.20
2019,10,28,08,44,4.20
2019,10,28,08,45,4.20
2019,10,28,08,46,4.20
2019,10,28,08,47,4.20
2019,10,28,08,48,4.20
2019,10,28,08,49,4.20
2019,10,28,08,50,4.20
2019,10,28,08,51,4.30
2019,10,28,08,52,4.30
2019,10,28,08,53,4.30
2019,10,28,08,54,4.30
2019,10,28,08,55,4.40
2019,10,28,08,56,4.40
2019,10,28,08,57,4.40
2019,10,28,08,58,4.40
2019,10,28,08,59,4.40
2019,10,28,09,00,4.40
2019,10,28,09,01,4.30
2019,10,28,09,02,4.40
2019,10,28,09,03,4.30
2019,10,28,09,04,4.40
2019,10,28,09,05,4.40
2019,10,28,09,06,4.50
2019,10,28,09,07,4.50
2019,10,28,09,08,4.50
2019,10,28,09,09,4.60
2019,10,28,09,10,4.60
2019,10,28,09,11,4.60
2019,10,28,09,12,4.60
2019,10,28,09,13,4.60
2019,10,28,09,14,4.60
2019,10,28,09,15,4.60
2019,10,28,09,16,4.70
2019,10,28,09,17,4.70
2019,10,28,09,18,4.70
2019,10,28,09,19,4.70
2019,10,28,09,20,4.70
2019,10,28,09,21,4.70
2019,10,28,09,22,4.70
2019,10,28,09,23,4.70
2019,10,28,09,24,4.70
2019,10,28,09,25,4.70
2019,10,28,09,26,4.70
2019,10,28,09,27,4.70
2019,10,28,09,28,4.70
2019,10,28,09,29,4.70
2019,10,28,09,30,4.70
2019,10,28,09,31,4.70
2019,10,28,09,32,4.70
2019,10,28,09,33,4.70
2019,10,28,09,34,4.70
2019,10,28,09,35,4.80
2019,10,28,09,36,4.80
2019,10,28,09,37,4.80
2019,10,28,09,38,4.90
2019,10,28,09,39,4.90
2019,10,28,09,40,5.00
2019,10,28,09,41,5.10
2019,10,28,09,42,5.10
2019,10,28,09,43,5.20
2019,10,28,09,44,5.20
2019,10,28,09,45,5.20
2019,10,28,09,46,5.30
2019,10,28,09,47,5.30
2019,10,28,09,48,5.30
2019,10,28,09,49,5.30
2019,10,28,09,50,5.30
2019,10,28,09,51,5.40
2019,10,28,09,52,5.40
2019,10,28,09,53,5.40
2019,10,28,09,54,5.50
2019,10,28,09,55,5.60
2019,10,28,09,56,5.70
2019,10,28,09,57,5.70
2019,10,28,09,58,5.80
2019,10,28,09,59,5.80
2019,10,28,10,00,5.90
2019,10,28,10,01,5.90
2019,10,28,10,02,6.00
2019,10,28,10,03,6.10
2019,10,28,10,04,6.20
2019,10,28,10,05,6.30
2019,10,28,10,06,6.30
2019,10,28,10,07,6.40
2019,10,28,10,08,6.50
2019,10,28,10,09,6.60
2019,10,28,10,10,6.70
2019,10,28,10,11,6.70
2019,10,28,10,12,6.80
2019,10,28,10,13,6.80
2019,10,28,10,14,6.90
2019,10,28,10,15,7.00
2019,10,28,10,16,7.00
2019,10,28,10,17,7.10
2019,10,28,10,18,7.10
2019,10,28,10,19,7.10
2019,10,28,10,20,7.20
2019,10,28,10,21,7.20
2019,10,28,10,22,7.30
2019,10,28,10,23,7.30
2019,10,28,10,24,7.30
2019,10,28,10,25,7.40
2019,10,28,10,26,7.40
2019,10,28,10,27,7.40
2019,10,28,10,28,7.40
2019,10,28,10,29,7.40
2019,10,28,10,30,7.40
2019,10,28,10,31,7.50
2019,10,28,10,32,7.50
2019,10,28,10,33,7.50
2019,10,28,10,34,7.50
2019,10,28,10,35,7.50
2019,10,28,10,36,7.50
2019,10,28,10,37,7.50
2019,10,28,10,38,7.50
2019,10,28,10,39,7.60
2019,10,28,10,40,7.60
2019,10,28,10,41,7.60
2019,10,28,10,42,7.60
2019,10,28,10,43,7.60
2019,10,28,10,44,7.60
2019,10,28,10,45,7.60
2019,10,28,10,46,7.60
2019,10,28,10,47,7.60
2019,10,28,10,48,7.60
2019,10,28,10,49,7.60
2019,10,28,10,50,7.70
2019,10,28,10,51,7.70
2019,10,28,10,52,7.70
2019,10,28,10,53,7.70
2019,10,28,10,54,7.70
2019,10,28,10,55,7.70
2019,10,28,10,56,7.70
2019,10,28,10,57,7.70
2019,10,28,10,58,7.70
2019,10,28,10,59,7.70
2019,10,28,11,00,7.70
2019,10,28,11,01,7.70
2019,10,28,11,02,7.70
2019,10,28,11,03,7.70
2019,10,28,11,04,7.80
2019,10,28,11,05,7.80
2019,10,28,11,06,7.80
2019,10,28,11,07,7.80
2019,10,28,11,08,7.80
2019,10,28,11,09,7.80
2019,10,28,11,10,7.80
2019,10,28,11,11,7.90
2019,10,28,11,12,7.90
2019,10,28,11,13,7.90
2019,10,28,11,14,7.90
2019,10,28,11,15,7.90
2019,10,28,11,16,7.90
2019,10,28,11,17,7.90
2019,10,28,11,18,7.90
2019,10,28,11,19,7.90
2019,10,28,11,20,7.90
2019,10,28,11,21,7.90
2019,10,28,11,22,7.90
2019,10,28,11,23,7.90
2019,10,28,11,24,7.90
2019,10,28,11,25,7.90
2019,10,28,11,26,7.90
2019,10,28,11,27,7.90
2019,10,28,11,28,8.00
2019,10,28,11,29,8.00
2019,10,28,11,30,8.00
2019,10,28,11,31,8.00
2019,10,28,11,32,8.00
2019,10,28,11,33,8.00
2019,10,28,11,34,8.00
2019,10,28,11,35,8.00
2019,10,28,11,36,8.00
2019,10,28,11,37,8.00
2019,10,28,11,38,8.00
2019,10,28,11,39,8.00
2019,10,28,11,40,8.00
2019,10,28,11,41,8.00
2019,10,28,11,42,8.00
2019,10,28,11,43,8.10
2019,10,28,11,44,8.10
2019,10,28,11,45,8.10
2019,10,28,11,46,8.10
2019,10,28,11,47,8.10
2019,10,28,11,48,8.10
2019,10,28,11,49,8.10
2019,10,28,11,50,8.10
2019,10,28,11,51,8.10
2019,10,28,11,52,8.10
2019,10,28,11,53,8.10
2019,10,28,11,54,8.10
2019,10,28,11,55,8.10
2019,10,28,11,56,8.20
2019,10,28,11,57,8.20
2019,10,28,11,58,8.20
2019,10,28,11,59,8.20
2019,10,28,12,00,8.20
2019,10,28,12,01,8.20
2019,10,28,12,02,8.20
2019,10,28,12,03,8.20
2019,10,28,12,04,8.20
2019,10,28,12,05,8.20
2019,10,28,12,06,8.20
2019,10,28,12,07,8.20
2019,10,28,12,08,8.20
2019,10,28,12,09,8.20
2019,10,28,12,10,8.30
2019,10,28,12,11,8.30
2019,10,28,12,12,8.30
2019,10,28,12,13,8.30
2019,10,28,12,14,8.30
2019,10,28,12,15,8.30
2019,10,28,12,16,8.30
2019,10,28,12,17,8.30
2019,10,28,12,18,8.30
2019,10,28,12,19,8.30
2019,10,28,12,20,8.30
2019,10,28,12,21,8.30
2019,10,28,12,22,8.30
2019,10,28,12,23,8.30
2019,10,28,12,24,8.30
2019,10,28,12,25,8.30
2019,10,28,12,26,8.30
2019,10,28,12,27,8.30
2019,10,28,12,28,8.30
2019,10,28,12,29,8.30
2019,10,28,12,30,8.30
2019,10,28,12,31,8.30
2019,10,28,12,32,8.40
2019,10,28,12,33,8.40
2019,10,28,12,34,8.40
2019,10,28,12,35,8.40
2019,10,28,12,36,8.40
2019,10,28,12,37,8.40
2019,10,28,12,38,8.40
2019,10,28,12,39,8.40
2019,10,28,12,40,8.40
2019,10,28,12,41,8.40
2019,10,28,12,42,8.40
2019,10,28,12,43,8.50
2019,10,28,12,44,8.50
2019,10,28,12,45,8.60
2019,10,28,12,46,8.60
2019,10,28,12,47,8.70
2019,10,28,12,48,8.70
2019,10,28,12,49,8.80
2019,10,28,12,50,8.80
2019,10,28,12,51,8.90
2019,10,28,12,52,8.90
2019,10,28,12,53,8.90
2019,10,28,12,54,9.00
2019,10,28,12,55,9.00
2019,10,28,12,56,9.10
2019,10,28,12,57,9.10
2019,10,28,12,58,9.10
2019,10,28,12,59,9.10
2019,10,28,13,00,9.10
2019,10,28,13,01,9.10
2019,10,28,13,02,9.20
2019,10,28,13,03,9.20
2019,10,28,13,04,9.30
2019,10,28,13,05,9.30
2019,10,28,13,06,9.30
2019,10,28,13,07,9.40
2019,10,28,13,08,9.40
2019,10,28,13,09,9.40
2019,10,28,13,10,9.50
2019,10,28,13,11,9.50
2019,10,28,13,12,9.50
2019,10,28,13,13,9.50
2019,10,28,13,14,9.50
2019,10,28,13,15,9.50
2019,10,28,13,16,9.40
2019,10,28,13,17,9.40
2019,10,28,13,18,9.40
2019,10,28,13,19,9.40
2019,10,28,13,20,9.40
2019,10,28,13,21,9.40
2019,10,28,13,22,9.40
2019,10,28,13,23,9.40
2019,10,28,13,24,9.40
2019,10,28,13,25,9.40
2019,10,28,13,26,9.40
2019,10,28,13,27,9.40
2019,10,28,13,28,9.50
2019,10,28,13,29,9.50
2019,10,28,13,30,9.60
2019,10,28,13,31,9.60
2019,10,28,13,32,9.60
2019,10,28,13,33,9.60
2019,10,28,13,34,9.60
2019,10,28,13,35,9.60
2019,10,28,13,36,9.60
2019,10,28,13,37,9.60
2019,10,28,13,38,9.60
2019,10,28,13,39,9.60
2019,10,28,13,40,9.60
2019,10,28,13,41,9.60
2019,10,28,13,42,9.60
2019,10,28,13,43,9.60
2019,10,28,13,44,9.60
2019,10,28,13,45,9.60
2019,10,28,13,46,9.60
2019,10,28,13,47,9.60
2019,10,28,13,48,9.60
2019,10,28,13,49,9.60
2019,10,28,13,50,9.60
2019,10,28,13,51,9.60
2019,10,28,13,52,9.60
2019,10,28,13,53,9.60
2019,10,28,13,54,9.60
2019,10,28,13,55,9.60
2019,10,28,13,56,9.70
2019,10,28,13,57,9.70
2019,10,28,13,58,9.70
2019,10,28,13,59,9.70
2019,10,28,14,00,9.70
2019,10,28,14,01,9.70
2019,10,28,14,02,9.70
2019,10,28,14,03,9.80
2019,10,28,14,04,9.80
2019,10,28,14,05,9.80
2019,10,28,14,06,9.90
2019,10,28,14,07,9.90
2019,10,28,14,08,9.90
2019,10,28,14,09,9.90
2019,10,28,14,10,9.90
2019,10,28,14,11,10.00
2019,10,28,14,12,10.10
2019,10,28,14,13,10.10
2019,10,28,14,14,10.20
2019,10,28,14,15,10.20
2019,10,28,14,16,10.20
2019,10,28,14,17,10.30
2019,10,28,14,18,10.30
2019,10,28,14,19,10.30
2019,10,28,14,20,10.30
2019,10,28,14,21,10.30
2019,10,28,14,22,10.30
2019,10,28,14,23,10.30
2019,10,28,14,24,10.30
2019,10,28,14,25,10.30
2019,10,28,14,26,10.30
2019,10,28,14,27,10.30
2019,10,28,14,28,10.30
2019,10,28,14,29,10.30
2019,10,28,14,30,10.30
2019,10,28,14,31,10.30
2019,10,28,14,32,10.20
2019,10,28,14,33,10.20
2019,10,28,14,34,10.20
2019,10,28,14,35,10.10
2019,10,28,14,36,10.00
2019,10,28,14,37,9.90
2019,10,28,14,38,9.80
2019,10,28,14,39,9.80
2019,10,28,14,40,9.70
2019,10,28,14,41,9.70
2019,10,28,14,42,9.60
2019,10,28,14,43,9.50
2019,10,28,14,44,9.50
2019,10,28,14,45,9.40
2019,10,28,14,46,9.30
2019,10,28,14,47,9.20
2019,10,28,14,48,9.20
2019,10,28,14,49,9.10
2019,10,28,14,50,9.10
2019,10,28,14,51,9.00
2019,10,28,14,52,8.90
2019,10,28,14,53,8.90
2019,10,28,14,54,8.80
2019,10,28,14,55,8.80
2019,10,28,14,56,8.70
2019,10,28,14,57,8.60
2019,10,28,14,58,8.50
2019,10,28,14,59,8.40
2019,10,28,15,00,8.30
2019,10,28,15,01,8.30
2019,10,28,15,02,8.20
2019,10,28,15,03,8.20
2019,10,28,15,04,8.10
2019,10,28,15,05,8.10
2019,10,28,15,06,8.00
2019,10,28,15,07,7.90
2019,10,28,15,08,7.90
2019,10,28,15,09,7.80
2019,10,28,15,10,7.70
2019,10,28,15,11,7.70
2019,10,28,15,12,7.60
2019,10,28,15,13,7.60
2019,10,28,15,14,7.50
2019,10,28,15,15,7.50
2019,10,28,15,16,7.40
2019,10,28,15,17,7.40
2019,10,28,15,18,7.40
2019,10,28,15,19,7.30
2019,10,28,15,20,7.30
2019,10,28,15,21,7.30
2019,10,28,15,22,7.20
2019,10,28,15,23,7.20
2019,10,28,15,24,7.20
2019,10,28,15,25,7.10
2019,10,28,15,26,7.10
2019,10,28,15,27,7.10
2019,10,28,15,28,7.10
2019,10,28,15,29,7.00
2019,10,28,15,30,7.00
2019,10,28,15,31,7.00
2019,10,28,15,32,7.00
2019,10,28,15,33,7.00
2019,10,28,15,34,7.00
2019,10,28,15,35,7.00
2019,10,28,15,36,7.00
2019,10,28,15,37,6.90
2019,10,28,15,38,6.90
2019,10,28,15,39,6.90
2019,10,28,15,40,6.90
2019,10,28,15,41,6.90
2019,10,28,15,42,6.90
2019,10,28,15,43,6.80
2019,10,28,15,44,6.80
2019,10,28,15,45,6.80
2019,10,28,15,46,6.80
2019,10,28,15,47,6.70
2019,10,28,15,48,6.70
2019,10,28,15,49,6.70
2019,10,28,15,50,6.70
2019,10,28,15,51,6.60
2019,10,28,15,52,6.60
2019,10,28,15,53,6.60
2019,10,28,15,54,6.60
2019,10,28,15,55,6.60
2019,10,28,15,56,6.60
2019,10,28,15,57,6.50
2019,10,28,15,58,6.50
2019,10,28,15,59,6.40
2019,10,28,16,00,6.40
2019,10,28,16,01,6.40
2019,10,28,16,02,6.40
2019,10,28,16,03,6.40
2019,10,28,16,04,6.40
2019,10,28,16,05,6.40
2019,10,28,16,06,6.40
2019,10,28,16,07,6.40
2019,10,28,16,08,6.40
2019,10,28,16,09,6.30
2019,10,28,16,10,6.30
2019,10,28,16,11,6.30
2019,10,28,16,12,6.30
2019,10,28,16,13,6.30
2019,10,28,16,14,6.30
2019,10,28,16,15,6.30
2019,10,28,16,16,6.20
2019,10,28,16,17,6.20
2019,10,28,16,18,6.20
2019,10,28,16,19,6.20
2019,10,28,16,20,6.20
2019,10,28,16,21,6.20
2019,10,28,16,22,6.20
2019,10,28,16,23,6.20
2019,10,28,16,24,6.20
2019,10,28,16,25,6.20
2019,10,28,16,26,6.20
2019,10,28,16,27,6.20
2019,10,28,16,28,6.20
2019,10,28,16,29,6.20
2019,10,28,16,30,6.20
2019,10,28,16,31,6.20
2019,10,28,16,32,6.20
2019,10,28,16,33,6.20
2019,10,28,16,34,6.20
2019,10,28,16,35,6.10
2019,10,28,16,36,6.10
2019,10,28,16,37,6.10
2019,10,28,16,38,6.10
2019,10,28,16,39,6.10
2019,10,28,16,40,6.10
2019,10,28,16,41,6.10
2019,10,28,16,42,6.10
2019,10,28,16,43,6.10
2019,10,28,16,44,6.10
2019,10,28,16,45,6.10
2019,10,28,16,46,6.00
2019,10,28,16,47,6.00
2019,10,28,16,48,6.00
2019,10,28,16,49,6.00
2019,10,28,16,50,6.00
2019,10,28,16,51,6.00
2019,10,28,16,52,5.90
2019,10,28,16,53,5.90
2019,10,28,16,54,5.90
2019,10,28,16,55,5.90
2019,10,28,16,56,5.90
2019,10,28,16,57,5.90
2019,10,28,16,58,5.90
2019,10,28,16,59,5.90
2019,10,28,17,00,5.90
2019,10,28,17,01,5.90
2019,10,28,17,02,5.90
2019,10,28,17,03,5.90
2019,10,28,17,04,5.90
2019,10,28,17,05,5.90
2019,10,28,17,06,5.90
2019,10,28,17,07,5.90
2019,10,28,17,08,5.90
2019,10,28,17,09,5.90
2019,10,28,17,10,5.90
2019,10,28,17,11,5.90
2019,10,28,17,12,5.90
2019,10,28,17,13,5.90
2019,10,28,17,14,5.90
2019,10,28,17,15,5.90
2019,10,28,17,16,5.90
2019,10,28,17,17,5.90
2019,10,28,17,18,5.90
2019,10,28,17,19,5.90
2019,10,28,17,20,5.80
2019,10,28,17,21,5.80
2019,10,28,17,22,5.80
2019,10,28,17,23,5.80
2019,10,28,17,24,5.80
2019,10,28,17,25,5.80
2019,10,28,17,26,5.80
2019,10,28,17,27,5.80
2019,10,28,17,28,5.80
2019,10,28,17,29,5.80
2019,10,28,17,30,5.80
2019,10,28,17,31,5.80
2019,10,28,17,32,5.80
2019,10,28,17,33,5.70
2019,10,28,17,34,5.70
2019,10,28,17,35,5.70
2019,10,28,17,36,5.70
2019,10,28,17,37,5.70
2019,10,28,17,38,5.70
2019,10,28,17,39,5.70
2019,10,28,17,40,5.70
2019,10,28,17,41,5.70
2019,10,28,17,42,5.70
2019,10,28,17,43,5.70
2019,10,28,17,44,5.70
2019,10,28,17,45,5.70
2019,10,28,17,46,5.60
2019,10,28,17,47,5.60
2019,10,28,17,48,5.60
2019,10,28,17,49,5.60
2019,10,28,17,50,5.60
2019,10,28,17,51,5.60
2019,10,28,17,52,5.60
2019,10,28,17,53,5.60
2019,10,28,17,54,5.60
2019,10,28,17,55,5.60
2019,10,28,17,56,5.60
2019,10,28,17,57,5.60
2019,10,28,17,58,5.60
2019,10,28,17,59,5.60
2019,10,28,18,00,5.60
2019,10,28,18,01,5.60
2019,10,28,18,02,5.60
2019,10,28,18,03,5.60
2019,10,28,18,04,5.50
2019,10,28,18,05,5.50